World > North America > United States > Missouri > Weatherby

Weatherby, MO Hourly Weather Conditions

Feedback E-mail the Weather

Quick WX

Weatherby, MO Weather Maps

°F °C°F °C
Weatherby Weather Map
UTC Time: 12/6/2022, 23:54
Your Time:

Weatherby, MO Regional Weather

Expires:202212070000;;420235
ASUS43 KEAX 062315
RWREAX

WEATHER ROUNDUP FOR EASTERN KANSAS AND NORTHWEST MISSOURI
NATIONAL WEATHER SERVICE KANSAS CITY/PLEASANT HILL MO
500 PM CST TUE DEC 06 2022


MOZ001>008-011>017-020>025-030>033-038>040-044>046-053-054-070000-
...NORTHERN AND CENTRAL MISSOURI...
  
CITY           SKY/WX    TMP DP  RH WIND       PRES   REMARKS
ST. JOSEPH     CLOUDY    41  28  60 CALM      30.01R                  
MOSBY          CLOUDY    45  32  61 NW5       30.02R                  
HARRISONVILLE  CLOUDY    43  36  75 NW7       30.01R                  
WHITEMAN AFB   CLOUDY    42  35  74 N6        29.96R                  
CLINTON        CLOUDY    41  41 100 N6        29.98R FOG              
SEDALIA        CLOUDY    43  37  79 N5        29.98R                  
MARSHALL       CLOUDY    43  36  75 CALM      29.99R                  
CHILLICOTHE      N/A     45  33  63 N6        30.00R                  
MOBERLY        CLOUDY    45  36  70 NE3       29.97R                  
KIRKSVILLE     NOT AVBL                                               

$$


SKY/WX - Weather  TMP - Temperature  DP - Dew Point  RH - Humidity
WIND - Wind Direction/Speed PRES - Barometric Pressure VSB - Visibility
WCI - Wind Chill Index E13G22 Wind - East Wind 13 mph/Gusts of 22 mph

Trending Headlines

Trending Entertainment Headlines

Weatherby Radar Loop

Use the map search tool if you want to place a location marker on the radar map...

Weatherby Quick Facts

National Two Day Weather Forecast


E-mail the Weatherby Weather Forecast

Voice your opinion or tell us about page issues...